Regional Weather Roundup
Issued by NWS

Home | Current Version | Previous Version | Text Only | Print | Product List | Glossary Off
Versions: 1 2 3 4 5 6 7 8 9 10 11 12 13 14 15 16 17 18 19 20 21 22 23 24 25 26 27 28 29 30 31 32 33 34 35 36 37 38 39 40 41 42 43 44 45 46 47 48 49 50

000
ASUS43 KLSX 211259
RWRMO

WEATHER SUMMARY FOR MISSOURI
NATIONAL WEATHER SERVICE SPRINGFIELD MO
800 AM CDT TUE APR 21 2015

NOTE: "FAIR" INDICATES FEW OR NO CLOUDS BELOW 12,000 FEET WITH NO
       SIGNIFICANT WEATHER AND/OR OBSTRUCTIONS TO VISIBILITY.
       CURRENT SKY AND/OR WEATHER CONDITIONS ARE NOT AVAILABLE FOR
       CHILLICOTHE AND FARMINGTON.

MOZ001>031-035>038-043-044-053-054-211400-
...NORTHERN AND WESTERN MISSOURI...

CITY           SKY/WX    TMP DP  RH WIND       PRES   REMARKS
KANSAS CTY INT PTSUNNY   47  34  60 W5        29.86S
KANSAS C DTWN  MOSUNNY   50  34  54 SW6       29.87S
LEE`S SUMMIT   MOSUNNY   47  35  63 SW6       29.88S
ST JOSEPH      CLOUDY    46  35  65 SE6       29.86S
CHILLICOTHE      N/A     48  32  53 VRB3      29.85R
KIRKSVILLE     MOSUNNY   45  27  49 W8        29.82R

$$
MOZ066>068-077>081-088>096-101>105-211400-
...SOUTHWEST MISSOURI...

CITY           SKY/WX    TMP DP  RH WIND       PRES   REMARKS
SPRINGFIELD    SUNNY     51  37  58 SW14      29.92R
JOPLIN         PTSUNNY   52  37  56 SW12      29.94R

$$
MOZ032>034-039>042-045>050-055>058-069>072-211400-
...CENTRAL MISSOURI...

CITY           SKY/WX    TMP DP  RH WIND       PRES   REMARKS
COLUMBIA       MOSUNNY   48  35  60 W7        29.87R
JEFFERSON CITY MOSUNNY   47  37  68 CALM      29.87S
ROLLA          MOSUNNY   44  34  67 SW8       29.87R
SEDALIA        MOSUNNY   47  37  68 SW6       29.89R
OSAGE BEACH    MOSUNNY   48  34  57 SW6       29.90R

$$
MOZ051-052-059>065-211400-
...EAST CENTRAL MISSOURI...

CITY           SKY/WX    TMP DP  RH WIND       PRES   REMARKS
ST LOUIS INTL  PTSUNNY   50  32  50 W13       29.85R
SPIRIT OF STL  CLOUDY    48  32  53 SW15      29.85R
ST CHARLES     MOSUNNY   48  34  58 W9        29.84R

$$
MOZ072>076-082>087-097>100-106>115-211400-
...SOUTH CENTRAL AND SOUTHEAST MISSOURI...

CITY           SKY/WX    TMP DP  RH WIND       PRES   REMARKS
CAPE GIRARDEAU SUNNY     50  37  61 W12       29.93R
FARMINGTON     SUNNY     52  32  46 W9        29.92R
POPLAR BLUFF   SUNNY     48  37  65 SW8       29.95R
WEST PLAINS    SUNNY     46  35  65 SW6       29.95R

$$



USA.gov is the U.S. government's official web portal to all federal, state and local government web resources and services.